| time (UTC) | temp C | wind direction | speed KPH | gust KPH | rain 1hr cm | rain 24hr cm | rain mn cm | humidity % | barometer mb |
| 20260507050005 | 11 | 302 | 0.0 | 4.8 | 0.15 | 0.61 | 0.15 | 94 | 1011.3 |
| 20260507044506 | 11 | 181 | 0.0 | 0.0 | 0.20 | 0.58 | 0.13 | 95 | 1011.2 |
| 20260507043105 | 11 | 181 | 0.0 | 1.6 | 0.23 | 0.58 | 0.13 | 94 | 1011.0 |
| 20260507041600 | 11 | 260 | 0.0 | 1.6 | 0.18 | 0.53 | 0.08 | 93 | 1010.7 |
| 20260507040053 | 12 | 109 | 0.0 | 1.6 | 0.10 | 0.46 | 0.00 | 90 | 1010.7 |
| 20260507034555 | 13 | 357 | 0.0 | 4.8 | 0.03 | 0.38 | 0.38 | 87 | 1010.2 |
| 20260507033048 | 13 | 134 | 0.0 | 3.2 | 0.00 | 0.36 | 0.36 | 85 | 1010.5 |
| 20260507031547 | 13 | 221 | 0.0 | 1.6 | 0.00 | 0.36 | 0.36 | 86 | 1010.3 |
| 20260507030048 | 13 | 84 | 0.0 | 1.6 | 0.00 | 0.36 | 0.36 | 85 | 1010.1 |
| 20260507024549 | 13 | 300 | 0.0 | 3.2 | 0.00 | 0.36 | 0.36 | 85 | 1010.3 |
| 20260507023041 | 14 | 246 | 0.0 | 3.2 | 0.00 | 0.36 | 0.36 | 85 | 1010.0 |
| 20260507021539 | 14 | 218 | 0.0 | 3.2 | 0.00 | 0.36 | 0.36 | 85 | 1010.2 |
| 20260507020046 | 14 | 86 | 0.0 | 6.4 | 0.00 | 0.36 | 0.36 | 87 | 1010.1 |
| 20260507014536 | 15 | 335 | 0.0 | 3.2 | 0.00 | 0.36 | 0.36 | 88 | 1009.9 |
| 20260507013035 | 15 | 271 | 0.0 | 3.2 | 0.00 | 0.36 | 0.36 | 88 | 1010.0 |
| 20260507011533 | 15 | 191 | 0.0 | 3.2 | 0.00 | 0.36 | 0.36 | 88 | 1010.1 |
| 20260507010034 | 15 | 214 | 0.0 | 1.6 | 0.00 | 0.36 | 0.36 | 89 | 1009.9 |
| 20260507004532 | 16 | 185 | 0.0 | 0.0 | 0.00 | 0.36 | 0.36 | 89 | 1009.7 |
| 20260507003029 | 16 | 122 | 0.0 | 3.2 | 0.00 | 0.36 | 0.36 | 90 | 1009.4 |
| 20260507001535 | 17 | 247 | 0.0 | 1.6 | 0.00 | 0.36 | 0.36 | 93 | 1009.1 |
| 20260507000025 | 17 | 213 | 0.0 | 1.6 | 0.00 | 0.36 | 0.36 | 93 | 1008.6 |
| 20260506234524 | 17 | 219 | 0.0 | 1.6 | 0.00 | 0.36 | 0.36 | 93 | 1008.3 |
| 20260506233024 | 17 | 229 | 0.0 | 0.0 | 0.00 | 0.36 | 0.36 | 92 | 1007.9 |
| 20260506231527 | 17 | 212 | 0.0 | 3.2 | 0.00 | 0.36 | 0.36 | 91 | 1008.0 |
| 20260506230022 | 18 | 209 | 0.0 | 3.2 | 0.00 | 0.36 | 0.36 | 90 | 1008.0 |
| 20260506224523 | 18 | 210 | 0.0 | 4.8 | 0.00 | 0.36 | 0.36 | 89 | 1007.9 |
| 20260506223021 | 18 | 233 | 0.0 | 6.4 | 0.00 | 0.36 | 0.36 | 88 | 1007.9 |
| 20260506221520 | 18 | 211 | 0.0 | 4.8 | 0.00 | 0.36 | 0.36 | 88 | 1007.7 |
| 20260506220020 | 18 | 195 | 0.0 | 6.4 | 0.00 | 0.36 | 0.36 | 88 | 1007.6 |
| 20260506214519 | 18 | 252 | 0.0 | 4.8 | 0.00 | 0.36 | 0.36 | 88 | 1007.3 |
| 20260506213019 | 18 | 220 | 0.0 | 4.8 | 0.00 | 0.36 | 0.36 | 87 | 1007.1 |
| 20260506211518 | 18 | 217 | 0.0 | 6.4 | 0.00 | 0.36 | 0.36 | 87 | 1007.2 |
| 20260506210022 | 19 | 194 | 0.0 | 3.2 | 0.00 | 0.36 | 0.36 | 87 | 1006.9 |
| 20260506204517 | 18 | 257 | 0.0 | 4.8 | 0.00 | 0.36 | 0.36 | 89 | 1006.9 |
| 20260506203015 | 18 | 203 | 0.0 | 3.2 | 0.00 | 0.36 | 0.36 | 91 | 1006.8 |
| 20260506201515 | 17 | 219 | 0.0 | 1.6 | 0.00 | 0.36 | 0.36 | 92 | 1007.1 |
| 20260506200014 | 17 | 193 | 0.0 | 0.0 | 0.00 | 0.36 | 0.36 | 92 | 1006.9 |
| 20260506194513 | 17 | 214 | 0.0 | 3.2 | 0.00 | 0.36 | 0.36 | 91 | 1007.0 |
| 20260506193012 | 17 | 214 | 0.0 | 6.4 | 0.00 | 0.36 | 0.36 | 91 | 1007.1 |
| 20260506191512 | 17 | 204 | 0.0 | 4.8 | 0.00 | 0.36 | 0.36 | 90 | 1007.2 |
| 20260506190011 | 17 | 203 | 0.0 | 1.6 | 0.00 | 0.36 | 0.36 | 92 | 1007.1 |
| 20260506184511 | 17 | 219 | 0.0 | 3.2 | 0.00 | 0.36 | 0.36 | 92 | 1007.3 |
| 20260506183012 | 17 | 228 | 0.0 | 4.8 | 0.00 | 0.36 | 0.36 | 92 | 1007.4 |
| 20260506181509 | 17 | 217 | 0.0 | 4.8 | 0.00 | 0.36 | 0.36 | 93 | 1007.5 |
| 20260506180012 | 17 | 219 | 0.0 | 11.3 | 0.00 | 0.36 | 0.36 | 94 | 1007.6 |
| 20260506174507 | 16 | 239 | 0.0 | 3.2 | 0.00 | 0.36 | 0.36 | 95 | 1007.7 |
| 20260506173006 | 16 | 189 | 0.0 | 3.2 | 0.00 | 0.36 | 0.36 | 95 | 1007.6 |
| 20260506171512 | 15 | 230 | 0.0 | 6.4 | 0.00 | 0.36 | 0.36 | 95 | 1007.7 |
| 20260506170005 | 15 | 198 | 0.0 | 4.8 | 0.00 | 0.36 | 0.36 | 95 | 1007.7 |
| 20260506164505 | 15 | 197 | 1.6 | 8.0 | 0.00 | 0.36 | 0.36 | 95 | 1007.6 |
| 20260506163008 | 15 | 214 | 0.0 | 6.4 | 0.00 | 0.36 | 0.36 | 96 | 1007.4 |
| 20260506161505 | 15 | 230 | 0.0 | 8.0 | 0.03 | 0.36 | 0.36 | 96 | 1007.8 |
| 20260506160006 | 15 | 169 | 1.6 | 6.4 | 0.05 | 0.36 | 0.36 | 96 | 1007.6 |
| 20260506154503 | 15 | 221 | 0.0 | 8.0 | 0.13 | 0.36 | 0.36 | 96 | 1007.7 |
| 20260506153001 | 15 | 140 | 0.0 | 6.4 | 0.15 | 0.36 | 0.36 | 97 | 1007.5 |
| 20260506151600 | 15 | 188 | 0.0 | 4.8 | 0.15 | 0.33 | 0.33 | 96 | 1007.4 |
| 20260506150101 | 15 | 243 | 0.0 | 8.0 | 0.13 | 0.30 | 0.30 | 96 | 1008.3 |
| 20260506144604 | 15 | 238 | 0.0 | 4.8 | 0.08 | 0.23 | 0.23 | 96 | 1008.4 |
| 20260506143059 | 15 | 241 | 0.0 | 6.4 | 0.08 | 0.20 | 0.20 | 95 | 1008.4 |
| 20260506141604 | 15 | 167 | 0.0 | 6.4 | 0.10 | 0.18 | 0.18 | 95 | 1008.1 |
| 20260506140114 | 15 | 274 | 0.0 | 3.2 | 0.13 | 0.18 | 0.18 | 96 | 1008.0 |
| 20260506134558 | 15 | 191 | 0.0 | 14.5 | 0.13 | 0.15 | 0.15 | 95 | 1007.9 |
| 20260506133102 | 15 | 217 | 0.0 | 3.2 | 0.13 | 0.13 | 0.13 | 93 | 1008.1 |
| 20260506131552 | 16 | 198 | 0.0 | 4.8 | 0.08 | 0.08 | 0.08 | 92 | 1008.1 |
| 20260506130051 | 16 | 213 | 0.0 | 1.6 | 0.05 | 0.05 | 0.05 | 91 | 1008.1 |
| 20260506124548 | 16 | 201 | 0.0 | 3.2 | 0.03 | 0.03 | 0.03 | 90 | 1008.2 |
| 20260506123047 | 16 | 225 | 0.0 | 4.8 | 0.00 | 0.00 | 0.00 | 87 | 1008.4 |
| 20260506121545 | 16 | 243 | 0.0 | 3.2 | 0.00 | 0.00 | 0.00 | 85 | 1008.6 |
| 20260506120047 | 16 | 240 | 0.0 | 4.8 | 0.00 | 0.00 | 0.00 | 83 | 1008.6 |
| 20260506114540 | 17 | 272 | 0.0 | 4.8 | 0.00 | 0.00 | 0.00 | 82 | 1008.3 |
| 20260506113046 | 17 | 129 | 0.0 | 3.2 | 0.00 | 0.00 | 0.00 | 80 | 1008.0 |
| 20260506111535 | 17 | 154 | 1.6 | 8.0 | 0.00 | 0.00 | 0.00 | 76 | 1007.9 |
| 20260506110036 | 17 | 85 | 1.6 | 11.3 | 0.00 | 0.00 | 0.00 | 75 | 1007.8 |
| 20260506104535 | 18 | 188 | 0.0 | 8.0 | 0.00 | 0.00 | 0.00 | 74 | 1007.5 |
| 20260506103035 | 18 | 281 | 0.0 | 4.8 | 0.00 | 0.00 | 0.00 | 72 | 1007.3 |
| 20260506101538 | 18 | 193 | 0.0 | 6.4 | 0.00 | 0.00 | 0.00 | 71 | 1007.4 |
| 20260506100032 | 18 | 207 | 0.0 | 12.9 | 0.00 | 0.00 | 0.00 | 70 | 1007.3 |
| 20260506094528 | 18 | 200 | 0.0 | 4.8 | 0.00 | 0.00 | 0.00 | 70 | 1007.1 |
| 20260506093023 | 18 | 206 | 0.0 | 6.4 | 0.00 | 0.00 | 0.00 | 69 | 1007.1 |
| 20260506091522 | 18 | 252 | 0.0 | 6.4 | 0.00 | 0.00 | 0.00 | 68 | 1007.3 |
| 20260506090020 | 18 | 94 | 0.0 | 9.7 | 0.00 | 0.00 | 0.00 | 67 | 1007.5 |
| 20260506084523 | 18 | 122 | 0.0 | 6.4 | 0.00 | 0.00 | 0.00 | 67 | 1007.6 |
| 20260506083018 | 18 | 146 | 0.0 | 12.9 | 0.00 | 0.00 | 0.00 | 67 | 1007.5 |
| 20260506081517 | 19 | 233 | 0.0 | 9.7 | 0.00 | 0.00 | 0.00 | 66 | 1007.6 |
| 20260506073009 | 20 | 214 | 0.0 | 4.8 | 0.00 | 0.00 | 0.00 | 63 | 1007.7 |
| 20260506071507 | 20 | 207 | 0.0 | 8.0 | 0.00 | 0.00 | 0.00 | 62 | 1007.9 |
| 20260506061606 | 20 | 110 | 0.0 | 9.7 | 0.00 | 0.00 | 0.00 | 59 | 1008.4 |